sat.trackr.live / text

‹ back to catalog

STARLINK-37901

NORAD 69960 · 2026-157T

PAYLOAD ACTIVE UNKNOWN

§ Identity

Operator
Country
US
Launch date
2026-07-09
Launch site
AFETR
Launch vehicle
Mass (kg)
RCS (m²)

Purposes: comms

External: N2YO · Heavens-Above · Gunter

§ Orbital elements

Epoch: 2026-09-19T11:33:38.740032Z

Period
93.85 min
Inclination
53.1599°
Eccentricity
0.0000836
Mean motion
15.34366951 rev/d
Perigee alt
462.2 km
Apogee alt
463.4 km
Semi-major
6,840.9 km
B*
7.0939e-4
RAAN
338.6810°
Arg perigee
90.7296°
Mean anomaly
269.3803°
Rev number
1,121

§ Raw data

STARLINK-379011 69960U 26157T   26262.48169838  .00023642  00000+0  70939-3 0  99932 69960  53.1599 338.6810 0000836  90.7296 269.3803 15.34366951 11212

JSON: /api/v1/satellites/69960 · /tle

For live sub-satellite position, see the globe view (requires WebGL).

§ Visibility from observer

Set your observer location to see the next 7 days of passes ≥ 10°. The values pass through the URL so the page stays shareable.

No JS? Fill the form by hand. The geolocation button needs JavaScript.